Regional Weather Roundup
Issued by NWS

Home | Current Version | Previous Version | Text Only | Print | Product List | Glossary On
Versions: 1 2 3 4 5 6 7 8 9 10 11 12 13 14 15 16 17 18 19 20 21 22 23 24 25 26 27
000
ASUS44 KJAN 201410
RWRMS

MISSISSIPPI HOURLY WEATHER ROUNDUP
NATIONAL WEATHER SERVICE JACKSON MS
800 AM CST MON FEB 20 2017

NOTE: "FAIR: INDICATES FEW OR NO CLOUDS BELOW 12,000 FEET WITH NO
SIGNIFICANT WEATHER AND/OR OBSTRUCTIONS TO VISIBILITY.

MSZ001>002-007>008-010>013-018>021-025>028-034>036-201500-
NORTHWEST MISSISSIPPI

CITY           SKY/WX    TMP DP  RH WIND       PRES   REMARKS
BATESVILLE     FAIR      58  53  84 CALM      30.09R
CLEVELAND      FAIR      61  56  81 SE7       30.07R
GREENWOOD      PTSUNNY   61  51  70 E5        30.08R
GREENVILLE     SUNNY     57  53  86 CALM      30.07R
OLIVE BRANCH   PTSUNNY  N/A N/A N/A SE9       30.08R
OXFORD         FAIR      57  48  72 SE8       30.11R
TUNICA         MOSUNNY   61  52  72 CALM      30.09R
WINONA         FAIR      58  53  83 SE3       30.08S
$$

MSZ003>006-009-014>017-022>024-029>033-037>039-201500-
NORTHEAST MISSISSIPPI

CITY           SKY/WX    TMP DP  RH WIND       PRES   REMARKS
COLUMBUS AFB   SUNNY     52  50  93 CALM      30.11R
CORINTH        FAIR      50  48  93 SE5       30.11S
TUPELO         SUNNY     54  49  83 E5        30.11R
$$

MSZ040-058-201500-
CENTRAL MISSISSIPPI

CITY           SKY/WX    TMP DP  RH WIND       PRES   REMARKS
JACKSON INTL   CLOUDY    63  53  70 SE8       30.07R
JACKSON HAWKNS MOSUNNY   61  53  75 SE6       30.07R
MADISON        FAIR     N/A N/A N/A CALM      30.07R
MERIDIAN KEY   CLOUDY    60  56  86 CALM      30.11R
MERIDIAN NAS   MOSUNNY   57  51  80 E3        30.12R
VICKSBURG VKS  SUNNY     57  54  88 CALM      30.06R
$$

MSZ059>079-201500-
SOUTH MISSISSIPPI

CITY           SKY/WX    TMP DP  RH WIND       PRES   REMARKS
BROOKHAVEN     FAIR     N/A N/A N/A SE7       30.08R
COLUMBIA       FOG       57  57 100 CALM      30.10R VSB 1/4
HATTIESBURG    FOG       57  57 100 E3        30.10R VSB 1/4
LAUREL         FAIR      58  58 100 E3        30.09S
MCCOMB         FOG       60  58  92 SE8       30.07R VSB 1/4
NATCHEZ        CLOUDY    63  61  94 SE3       30.06R
PINE BELT      CLOUDY    55  52  88 SE3       30.11R VSB<1/4
$$

MSZ080>082-201500-
COASTAL MISSISSIPPI

CITY           SKY/WX    TMP DP  RH WIND       PRES   REMARKS
BAY ST LOUIS   PTSUNNY   63  61  94 E6        30.08R FOG
BILOXI         CLOUDY    64  64 100 E9        30.08S FOG
PASCAGOULA     FOG       62  60  93 N3        30.10R VSB 1/4
GULFPORT       CLOUDY    65  65 100 E9        30.08R FOG
$$

LAZ007>009-015>016-023>026-201500-
NORTHEAST LOUISIANA

CITY           SKY/WX    TMP DP  RH WIND       PRES   REMARKS
BASTROP        CLOUDY    62  62  98 CALM      30.06R
TALLULAH/VBURG MOSUNNY   58  52  80 CALM      30.08R
VIDALIA        CLOUDY    67  64  90 CALM      30.05R
$$




USA.gov is the U.S. government's official web portal to all federal, state and local government web resources and services.